Haines, AK

12:44 PM AKDT on March 24, 2017 (GMT -0800)
Haines

Weather History for PAHN - November, 2011

Change the Weather History Date:

Wednesday, November 16, 2011

  Actual Average Record
Temperature  
Mean Temperature 17 °F -  
Max Temperature 19 °F 36 °F 46 °F (1979)
Min Temperature 15 °F 28 °F 4 °F (1973)
Degree Days  
Heating Degree Days 48    
Moisture  
Dew Point 14 °F    
Average Humidity 87    
Maximum Humidity 93    
Minimum Humidity 73    
Precipitation  
Precipitation 0.46 in - - ()
Sea Level Pressure  
Sea Level Pressure 29.49 in    
Wind  
Wind Speed 18 mph (WNW)    
Max Wind Speed 31 mph    
Max Gust Speed 52 mph    
Visibility 1 miles    
Events Fog , Snow    
Averages and records for this station are not official NWS values.
T = Trace of Precipitation, MM = Missing Value Source: NWS Daily Summary

Daily Weather History Graph

Daily Weather History Graph

Search for Another Location

Airport or City:

Trip Planner

Search our weather history database for the weather conditions in past years. The results will help you decide how hot, cold, wet, or windy it might be!

Date:

Astronomy

Nov. 16, 2011 Rise Set
Actual Time 7:57 AM AKST 3:35 PM AKST
Civil Twilight 7:09 AM AKST 4:23 PM AKST
Nautical Twilight 6:19 AM AKST 5:13 PM AKST
Astronomical Twilight 5:31 AM AKST 6:01 PM AKST
Moon 9:13 PM AKST (11/16) 12:27 PM AKST (11/16)
Length of Visible Light 9h 13m
Length of Day
7h 37m
Waning Gibbous, 68% of the Moon is Illuminated
Nov 16
Waning Gibbous
Nov 18
Last Quarter
Nov 24
New
Dec 2
First Quarter
Dec 10
Full

Hourly Weather History & Observations

Time (AKST) Temp. Windchill Dew Point Humidity Pressure Visibility Wind Dir Wind Speed Gust Speed Precip Events Conditions
12:54 AM 19.9 °F 9.3 °F 18.0 °F 92% 29.61 in 0.5 mi West 9.2 mph - 0.11 in Fog , Snow Snow
1:54 AM 19.9 °F 10.1 °F 18.0 °F 92% 29.60 in 0.5 mi WNW 8.1 mph - 0.09 in Fog , Snow Snow
3:21 AM 19.4 °F 7.9 °F 17.6 °F 93% 29.56 in 0.2 mi WNW 10.4 mph - 0.03 in Fog , Snow Heavy Snow
3:28 AM 19.4 °F 7.9 °F 17.6 °F 93% 29.56 in 0.5 mi WNW 10.4 mph - 0.04 in Fog , Snow Snow
3:54 AM 19.9 °F 7.9 °F 17.1 °F 89% 29.57 in 0.5 mi WNW 11.5 mph - 0.06 in Fog , Snow Snow
4:54 AM 19.9 °F 8.6 °F 18.0 °F 92% 29.55 in 0.5 mi WNW 10.4 mph - 0.06 in Fog , Snow Snow
5:54 AM 19.9 °F 7.3 °F 17.1 °F 89% 29.53 in 0.5 mi WNW 12.7 mph - 0.03 in Fog , Snow Snow
6:54 AM 19.9 °F 6.2 °F 18.0 °F 92% 29.52 in 0.5 mi NW 15.0 mph 24.2 mph 0.03 in Fog , Snow Snow
7:54 AM 19.9 °F 4.3 °F 17.1 °F 89% 29.50 in 0.5 mi WNW 19.6 mph 28.8 mph 0.00 in Fog , Snow Snow
8:54 AM 19.9 °F 4.8 °F 17.1 °F 89% 29.50 in 0.5 mi NW 18.4 mph 31.1 mph 0.02 in Fog , Snow Snow
9:01 AM 19.4 °F 4.5 °F 17.6 °F 93% 29.49 in 0.2 mi NW 17.3 mph 32.2 mph 0.00 in Fog , Snow Heavy Snow
9:54 AM 19.0 °F 3.6 °F 17.1 °F 92% 29.48 in 0.2 mi NW 18.4 mph 31.1 mph 0.01 in Fog , Snow Heavy Snow
10:15 AM 19.4 °F 3.2 °F 17.6 °F 93% 29.46 in 0.2 mi WNW 20.7 mph 31.1 mph 0.00 in Fog , Snow Heavy Snow
10:54 AM 19.0 °F 3.6 °F 16.0 °F 88% 29.47 in 0.2 mi WNW 18.4 mph 32.2 mph 0.00 in Fog , Snow Heavy Snow
11:21 AM 19.4 °F 3.2 °F 15.8 °F 86% 29.46 in 0.2 mi WNW 20.7 mph 51.8 mph 0.00 in Fog , Snow Heavy Snow
11:54 AM 19.0 °F 0.3 °F 16.0 °F 88% 29.46 in 0.2 mi WNW 28.8 mph 35.7 mph 0.01 in Fog , Snow Snow
12:50 PM 19.4 °F 2.8 °F 15.8 °F 86% 29.45 in 0.2 mi WNW 21.9 mph 33.4 mph 0.01 in Fog , Snow Snow
12:54 PM 19.0 °F 2.0 °F 16.0 °F 88% 29.45 in 0.2 mi WNW 23.0 mph 32.2 mph 0.01 in Fog , Snow Snow
1:54 PM 18.0 °F 0.6 °F 16.0 °F 92% 29.45 in 0.5 mi WNW 23.0 mph 34.5 mph 0.01 in Fog , Snow Snow
2:01 PM 17.6 °F -0.6 °F 15.8 °F 93% 29.44 in 0.2 mi WNW 25.3 mph 40.3 mph 0.00 in Fog , Snow Snow
2:23 PM 17.6 °F 0.5 °F 15.8 °F 93% 29.43 in 0.5 mi WNW 21.9 mph 36.8 mph 0.00 in Fog , Snow Snow
2:49 PM 17.6 °F -1.3 °F 15.8 °F 93% 29.42 in 0.2 mi WNW 27.6 mph 36.8 mph 0.00 in Fog , Snow Snow
2:54 PM 18.0 °F 0.2 °F 15.1 °F 88% 29.43 in 0.2 mi WNW 24.2 mph 36.8 mph 0.00 in Fog , Snow Snow
3:00 PM 17.6 °F -1.0 °F 15.8 °F 93% 29.42 in 0.5 mi WNW 26.5 mph 35.7 mph 0.00 in Fog , Snow Snow
3:20 PM 17.6 °F 0.1 °F 15.8 °F 93% 29.42 in 0.2 mi WNW 23.0 mph 36.8 mph 0.00 in Fog , Snow Snow
3:36 PM 17.6 °F 0.1 °F 14.0 °F 86% 29.42 in 0.8 mi WNW 23.0 mph 32.2 mph 0.00 in Snow Light Snow
3:54 PM 18.0 °F -0.8 °F 14.0 °F 84% 29.42 in 0.8 mi WNW 27.6 mph 35.7 mph 0.00 in Snow Light Snow
4:07 PM 17.6 °F -0.3 °F 14.0 °F 86% 29.42 in 1.0 mi WNW 24.2 mph 35.7 mph 0.00 in Snow Light Snow
4:30 PM 17.6 °F 0.9 °F 14.0 °F 86% 29.42 in 1.0 mi WNW 20.7 mph 38.0 mph 0.00 in Snow Light Snow
4:45 PM 17.6 °F -1.0 °F 14.0 °F 86% 29.42 in 0.8 mi WNW 26.5 mph 36.8 mph 0.00 in Snow Light Snow
4:51 PM 17.6 °F -1.3 °F 14.0 °F 86% 29.42 in 0.8 mi WNW 27.6 mph 38.0 mph 0.00 in Snow Light Snow
4:54 PM 17.1 °F -2.0 °F 14.0 °F 88% 29.43 in 0.8 mi WNW 27.6 mph 39.1 mph 0.00 in Snow Light Snow
5:34 PM 17.6 °F -2.2 °F 14.0 °F 86% 29.43 in 0.5 mi WNW 31.1 mph 42.6 mph 0.01 in Fog , Snow Snow
5:54 PM 16.0 °F -3.8 °F 12.9 °F 88% 29.44 in 0.5 mi WNW 28.8 mph 42.6 mph 0.01 in Fog , Snow Snow
6:30 PM 15.8 °F -3.1 °F 12.2 °F 86% 29.45 in 0.5 mi WNW 25.3 mph 42.6 mph 0.00 in Fog , Snow Snow
6:54 PM 16.0 °F -2.8 °F 12.9 °F 88% 29.47 in 0.8 mi WNW 25.3 mph 40.3 mph 0.01 in Snow Light Snow
7:26 PM 15.8 °F -2.3 °F 12.2 °F 86% 29.46 in 1.0 mi WNW 23.0 mph 36.8 mph 0.00 in Snow Light Snow
7:51 PM 15.8 °F -3.7 °F 10.4 °F 79% 29.46 in 0.8 mi WNW 27.6 mph 40.3 mph 0.00 in Snow Light Snow
7:54 PM 16.0 °F -4.1 °F 10.9 °F 81% 29.48 in 0.8 mi WNW 29.9 mph 40.3 mph 0.00 in Snow Light Snow
8:40 PM 15.8 °F -3.7 °F 10.4 °F 79% 29.50 in 1.2 mi WNW 27.6 mph 36.8 mph 0.00 in Snow Light Snow
8:54 PM 16.0 °F -3.5 °F 10.9 °F 81% 29.52 in 0.8 mi WNW 27.6 mph 39.1 mph 0.00 in Snow Light Snow
9:11 PM 15.8 °F -2.7 °F 10.4 °F 79% 29.53 in 1.2 mi WNW 24.2 mph 38.0 mph 0.00 in Snow Light Snow
9:54 PM 15.1 °F -4.0 °F 10.9 °F 84% 29.57 in 1.2 mi WNW 25.3 mph 35.7 mph 0.00 in Snow Light Snow
10:27 PM 15.8 °F -2.7 °F 10.4 °F 79% 29.58 in 2.0 mi WNW 24.2 mph 32.2 mph 0.00 in Snow Light Snow
10:37 PM 15.8 °F -3.4 °F 10.4 °F 79% 29.57 in 1.5 mi WNW 26.5 mph 36.8 mph 0.00 in Snow Light Snow
10:54 PM 15.1 °F -4.4 °F 9.0 °F 77% 29.60 in 1.5 mi WNW 26.5 mph 38.0 mph 0.00 in Snow Light Snow
11:25 PM 15.8 °F -1.9 °F 8.6 °F 73% 29.61 in 1.2 mi WNW 21.9 mph 40.3 mph 0.00 in Snow Light Snow
11:51 PM 15.8 °F -4.1 °F 8.6 °F 73% 29.61 in 1.8 mi WNW 28.8 mph 39.1 mph 0.00 in Snow Light Snow
11:54 PM 15.1 °F -3.3 °F 8.1 °F 74% 29.64 in 1.8 mi WNW 23.0 mph 39.1 mph 0.00 in Snow Light Snow